Cumberland, WV

10:06 AM EDT on July 24, 2017 (GMT -0400)
Greater Cumberland Regional

Weather History for KCBE - May, 2013

Change the Weather History Date:

Monday, May 13, 2013

  Actual Average (KMRB) Record (KMRB)
Temperature  
Mean Temperature 47 °F -  
Max Temperature 53 °F 74 °F 91 °F (1956)
Min Temperature 37 °F 50 °F 34 °F (1928)
Degree Days  
Heating Degree Days 18    
Moisture  
Dew Point 24 °F    
Average Humidity 41    
Maximum Humidity 75    
Minimum Humidity 26    
Precipitation  
Precipitation 0.00 in - - ()
Sea Level Pressure  
Sea Level Pressure 30.13 in    
Wind  
Wind Speed 6 mph (WNW)    
Max Wind Speed 17 mph    
Max Gust Speed 31 mph    
Visibility 10 miles    
Events      
Averages and records for this station are not official NWS values.
T = Trace of Precipitation, MM = Missing Value Source: NWS Daily Summary

Daily Weather History Graph

Daily Weather History Graph

Search for Another Location

Airport or City:

Trip Planner

Search our weather history database for the weather conditions in past years. The results will help you decide how hot, cold, wet, or windy it might be!

Date:

Astronomy

May. 13, 2013 Rise Set
Actual Time 6:02 AM EDT 8:20 PM EDT
Civil Twilight 5:32 AM EDT 8:51 PM EDT
Nautical Twilight 4:54 AM EDT 9:28 PM EDT
Astronomical Twilight 4:13 AM EDT 10:09 PM EDT
Moon 8:46 AM EDT (5/13) 11:28 PM EDT (5/13)
Length of Visible Light 15h 19m
Length of Day
14h 18m
Waxing Crescent, 12% of the Moon is Illuminated
May 13
Waxing Crescent
May 18
First Quarter
May 25
Full
May 31
Last Quarter
Jun 8
New

Hourly Weather History & Observations

Time (EDT) Temp. Windchill Dew Point Humidity Pressure Visibility Wind Dir Wind Speed Gust Speed Precip Events Conditions
12:14 AM 46.4 °F 45.2 °F 26.6 °F 46% 30.08 in 10.0 mi SW 3.5 mph - N/A   Clear
12:34 AM 46.4 °F 43.5 °F 26.6 °F 46% 30.08 in 10.0 mi SW 5.8 mph - N/A   Clear
12:54 AM 44.6 °F 43.1 °F 28.4 °F 53% 30.08 in 10.0 mi South 3.5 mph - N/A   Clear
1:14 AM 44.6 °F - 28.4 °F 53% 30.09 in 10.0 mi Calm Calm - N/A   Clear
1:34 AM 42.8 °F 40.1 °F 28.4 °F 57% 30.08 in 10.0 mi SW 4.6 mph - N/A   Clear
1:55 AM 42.8 °F - 30.2 °F 61% 30.08 in 10.0 mi Calm Calm - N/A   Scattered Clouds
2:15 AM 42.8 °F 41.1 °F 30.2 °F 61% 30.08 in 10.0 mi WNW 3.5 mph - N/A   Scattered Clouds
2:35 AM 42.8 °F 40.1 °F 32.0 °F 66% 30.08 in 10.0 mi WNW 4.6 mph - N/A   Mostly Cloudy
2:55 AM 41.0 °F 37.1 °F 32.0 °F 70% 30.09 in 10.0 mi West 5.8 mph - N/A   Mostly Cloudy
3:15 AM 44.6 °F 40.2 °F 28.4 °F 53% 30.09 in 10.0 mi West 8.1 mph - N/A   Scattered Clouds
3:35 AM 44.6 °F 41.4 °F 26.6 °F 49% 30.09 in 10.0 mi West 5.8 mph - N/A   Clear
3:55 AM 44.6 °F 41.4 °F 26.6 °F 49% 30.09 in 10.0 mi West 5.8 mph - N/A   Clear
4:15 AM 44.6 °F 42.2 °F 26.6 °F 49% 30.09 in 10.0 mi NW 4.6 mph - N/A   Clear
4:35 AM 42.8 °F 41.1 °F 26.6 °F 53% 30.08 in 10.0 mi NW 3.5 mph - N/A   Clear
4:55 AM 42.8 °F 40.1 °F 26.6 °F 53% 30.08 in 10.0 mi West 4.6 mph - N/A   Clear
5:15 AM 42.8 °F 39.3 °F 26.6 °F 53% 30.08 in 10.0 mi West 5.8 mph - N/A   Clear
5:35 AM 42.8 °F 40.1 °F 26.6 °F 53% 30.08 in 10.0 mi NW 4.6 mph - N/A   Clear
5:55 AM 42.8 °F 39.3 °F 26.6 °F 53% 30.09 in 10.0 mi WNW 5.8 mph - N/A   Clear
6:15 AM 42.8 °F - 26.6 °F 53% 30.10 in 10.0 mi Calm Calm - N/A   Scattered Clouds
6:35 AM 42.8 °F - 26.6 °F 53% 30.11 in 10.0 mi Calm Calm - N/A   Clear
6:55 AM 42.8 °F 41.1 °F 26.6 °F 53% 30.12 in 10.0 mi West 3.5 mph - N/A   Clear
7:15 AM 42.8 °F - 26.6 °F 53% 30.12 in 10.0 mi Calm Calm - N/A   Clear
7:35 AM 42.8 °F 41.1 °F 26.6 °F 53% 30.13 in 10.0 mi NW 3.5 mph - N/A   Clear
7:55 AM 42.8 °F 41.1 °F 24.8 °F 49% 30.14 in 10.0 mi West 3.5 mph - N/A   Clear
8:15 AM 44.6 °F 42.2 °F 24.8 °F 46% 30.14 in 10.0 mi NW 4.6 mph - N/A   Unknown
8:35 AM 46.4 °F 44.3 °F 26.6 °F 46% 30.15 in 10.0 mi North 4.6 mph - N/A   Clear
8:55 AM 46.4 °F 43.5 °F 23.0 °F 40% 30.15 in 10.0 mi WNW 5.8 mph - N/A   Clear
9:15 AM 46.4 °F 41.5 °F 21.2 °F 37% 30.15 in 10.0 mi WNW 10.4 mph 17.3 mph N/A   Clear
9:35 AM 46.4 °F 41.1 °F 19.4 °F 34% 30.15 in 10.0 mi WNW 11.5 mph 20.7 mph N/A   Clear
9:55 AM 48.2 °F - 19.4 °F 32% 30.15 in 10.0 mi West 9.2 mph 20.7 mph N/A   Clear
10:15 AM 50.0 °F - 19.4 °F 30% 30.15 in 10.0 mi WNW 13.8 mph 21.9 mph N/A   Clear
10:36 AM 50.0 °F - 17.6 °F 28% 30.15 in 10.0 mi WSW 11.5 mph 27.6 mph N/A   Clear
10:56 AM 50.0 °F - 17.6 °F 28% 30.15 in 10.0 mi West 15.0 mph 27.6 mph N/A   Clear
11:16 AM 51.8 °F - 19.4 °F 28% 30.15 in 10.0 mi NW 9.2 mph 27.6 mph N/A   Clear
11:36 AM 51.8 °F - 19.4 °F 28% 30.15 in 10.0 mi NW 10.4 mph 16.1 mph N/A   Scattered Clouds
11:56 AM 51.8 °F - 19.4 °F 28% 30.15 in 10.0 mi NW 12.7 mph 31.1 mph N/A   Scattered Clouds
12:16 PM 51.8 °F - 17.6 °F 26% 30.15 in 10.0 mi West 16.1 mph 28.8 mph N/A   Clear
12:36 PM 51.8 °F - 19.4 °F 28% 30.15 in 10.0 mi WNW 8.1 mph - N/A   Scattered Clouds
12:56 PM 51.8 °F - 19.4 °F 28% 30.15 in 10.0 mi NNW 17.3 mph 28.8 mph N/A   Clear
1:16 PM 51.8 °F - 19.4 °F 28% 30.15 in 10.0 mi WNW 11.5 mph 21.9 mph N/A   Scattered Clouds
1:36 PM 53.6 °F - 19.4 °F 26% 30.15 in 10.0 mi West 13.8 mph 24.2 mph N/A   Clear
1:56 PM 53.6 °F - 19.4 °F 26% 30.14 in 10.0 mi West 13.8 mph 21.9 mph N/A   Clear
2:16 PM 53.6 °F - 19.4 °F 26% 30.13 in 10.0 mi West 12.7 mph 19.6 mph N/A   Clear
2:36 PM 53.6 °F - 21.2 °F 28% 30.14 in 10.0 mi WNW 8.1 mph 19.6 mph N/A   Clear
2:56 PM 53.6 °F - 21.2 °F 28% 30.13 in 10.0 mi NW 10.4 mph 24.2 mph N/A   Clear
3:16 PM 53.6 °F - 19.4 °F 26% 30.13 in 10.0 mi West 11.5 mph 24.2 mph N/A   Scattered Clouds
3:36 PM 53.6 °F - 19.4 °F 26% 30.13 in 10.0 mi West 12.7 mph 17.3 mph N/A   Scattered Clouds
4:16 PM 53.6 °F - 21.2 °F 28% 30.12 in 10.0 mi West 11.5 mph 18.4 mph N/A   Scattered Clouds
4:36 PM 53.6 °F - 21.2 °F 28% 30.12 in 10.0 mi NW 15.0 mph 23.0 mph N/A   Scattered Clouds
4:56 PM 51.8 °F - 21.2 °F 30% 30.12 in 10.0 mi NW 4.6 mph - N/A   Clear
5:16 PM 53.6 °F - 19.4 °F 26% 30.12 in 10.0 mi NW 13.8 mph 19.6 mph N/A   Scattered Clouds
5:36 PM 53.6 °F - 19.4 °F 26% 30.12 in 10.0 mi West 15.0 mph 20.7 mph N/A   Scattered Clouds
5:56 PM 53.6 °F - 21.2 °F 28% 30.12 in 10.0 mi West 10.4 mph 21.9 mph N/A   Scattered Clouds
6:16 PM 51.8 °F - 21.2 °F 30% 30.12 in 10.0 mi NW 8.1 mph - N/A   Scattered Clouds
6:36 PM 51.8 °F - 19.4 °F 28% 30.12 in 10.0 mi WNW 8.1 mph 16.1 mph N/A   Clear
6:56 PM 53.6 °F - 21.2 °F 28% 30.12 in 10.0 mi NW 6.9 mph - N/A   Scattered Clouds
7:37 PM 51.8 °F - 21.2 °F 30% 30.12 in 10.0 mi NW 10.4 mph - N/A   Scattered Clouds
7:57 PM 50.0 °F - 21.2 °F 32% 30.13 in 10.0 mi NNW 11.5 mph 18.4 mph N/A   Scattered Clouds
8:17 PM 50.0 °F - 21.2 °F 32% 30.14 in 10.0 mi NW 6.9 mph 17.3 mph N/A   Clear
8:37 PM 50.0 °F - 21.2 °F 32% 30.15 in 10.0 mi WNW 6.9 mph - N/A   Clear
8:57 PM 50.0 °F - 21.2 °F 32% 30.16 in 10.0 mi West 4.6 mph - N/A   Clear
9:17 PM 50.0 °F - 21.2 °F 32% 30.17 in 10.0 mi West 4.6 mph - N/A   Clear
9:37 PM 48.2 °F - 21.2 °F 34% 30.18 in 10.0 mi WNW 4.6 mph - N/A   Scattered Clouds
9:57 PM 46.4 °F 41.9 °F 24.8 °F 43% 30.19 in 10.0 mi West 9.2 mph - N/A   Scattered Clouds
10:17 PM 46.4 °F 44.3 °F 26.6 °F 46% 30.20 in 10.0 mi WNW 4.6 mph - N/A   Clear
10:37 PM 46.4 °F 44.3 °F 28.4 °F 50% 30.20 in 10.0 mi WNW 4.6 mph - N/A   Clear
10:57 PM 42.8 °F - 30.2 °F 61% 30.21 in 10.0 mi Calm Calm - N/A   Clear
11:17 PM 42.8 °F - 28.4 °F 57% 30.22 in 10.0 mi Calm Calm - N/A   Clear
11:37 PM 41.0 °F 39.0 °F 30.2 °F 65% 30.22 in 10.0 mi NNE 3.5 mph - N/A   Clear
11:57 PM 37.4 °F 34.9 °F 30.2 °F 75% 30.22 in 10.0 mi North 3.5 mph - N/A   Clear